Location: Bonny Doon Airfield
(37.0704°N, 122.1252°W)
Time: 00:00:26
(UTC-08:00)

Vanguard 1 Rocket - Pass Details

Date: 23 October 2017
Orbit: 655 x 4222 km, 34.3° (Epoch: 24 November)

Event Time Altitude Azimuth Distance (km) Brightness Sun altitude
Rises 09:50:19 0° 268° (W) 4,182 10.4 25.1°
Reaches altitude 10° 09:53:43 10° 266° (W) 2,810 9.6 25.7°
Maximum altitude 09:59:45 65° 185° (S) 816 7.9 26.6°
Drops below altitude 10° 10:04:08 10° 104° (ESE) 2,062 10.4 27.2°
Sets 10:06:17 0° 101° (E) 2,968 10.9 27.5°
